Regional Weather Roundup
Issued by NWS New Orleans/Baton Rouge, LA

Home | Current Version | Previous Version | Text Only | Print | Product List | Glossary On
Versions: 1 2 3 4 5 6 7 8 9 10 11 12 13 14 15 16 17 18 19 20 21 22 23 24 25 26 27 28 29 30 31 32 33 34 35 36 37 38 39 40 41 42 43 44 45 46 47 48 49 50
694
ASUS44 KLIX 010705
RWRLIX
NEW ORLEANS REGIONAL WEATHER ROUNDUP
NATIONAL WEATHER SERVICE NEW ORLEANS LA
200 AM CDT WED OCT 01 2014

NOTE: "FAIR" INDICATES FEW OR NO CLOUDS BELOW 12,000 FEET WITH NO
      SIGNIFICANT WEATHER AND/OR OBSTRUCTIONS TO VISIBILITY.
      SKY/WX - SKY CONDITION AND SIGNIFICANT WEATHER.
      TMP - AIR TEMPERATURE.     DP    - DEWPOINT TEMPERATURE.
      RH  - RELATIVE HUMIDITY.   PRES  - PRESSURE.
      HI  - HEAT INDEX.          WCI   - WIND CHILL INDEX.

*  THESE STATIONS ARE NOT NWS OR FAA STATIONS AND ARE NOT UNDER
   NWS QUALITY CONTROL.

LAZ038-040-048-061>063-065>067-069-010800-
SOUTHEAST LOUISIANA

CITY           SKY/WX    TMP DP  RH WIND       PRES   REMARKS
N.O. AUDUBON   NOT AVBL
N.O. INTL ARPT PTCLDY    76  71  85 SE3       29.88S
N.O. LAKEFRONT CLEAR     76  72  87 SE6       29.89R
N.O. DOWNTOWN*   N/A     77  70  78 SE6       29.89S
SLIDELL        CLEAR     70  67  90 CALM      29.89R
BATON ROUGE    CLEAR     73  71  93 E5        29.88R
BOOTHVILLE     CLEAR     77  74  90 E5        29.89S
BELLE CHASSE   MOCLDY    75  71  87 CALM      29.88S
BOGALUSA*      FOG       69  66  90 CALM      29.91R VSB 1/4
GALLIANO*      NOT AVBL
NEW ROADS*       N/A     73  72  95 CALM      29.87S
GONZALES*        N/A     74  74 100 CALM      29.87S
HAMMOND*       CLEAR     72  70  94 CALM      29.90S
HOUMA*         PTCLDY   N/A N/A N/A CALM      29.87R
PORT FOURCHON* MOSUNNY   81  73  78 SE10      29.90S

$$

MSZ070-080>082-010800-
SOUTHERN MISSISSIPPI

CITY           SKY/WX    TMP DP  RH WIND       PRES   REMARKS
MCCOMB         CLEAR     71  69  93 SE5       29.90R FOG
GULFPORT       PTCLDY    73  70  90 CALM      29.89R
BILOXI         CLEAR     73  73 100 NE2       29.90R
PASCAGOULA     CLEAR     65  64  97 CALM      29.90R FOG

$$

COASTAL OBSERVATIONS
LAKE AND NEARSHORE STATIONS

STATION/POSITION TIME  TEMP    WIND        PRES    WAVE
                       AIR SEA DIR/SP/G            HT/PER
                 (UTC) (F)     (DEG/KT/KT) (MB)    (FT/S)
PASCAGOULA       0700   77     120/  7/ 10 1011.7
WAVELAND YACHT   0700   78     160/ 10/ 13 1011.4
GRAND ISLE       0700   79 82  120/  6/ 12 1012.0
SOUTHWEST PASS   0700   80 85  110/ 14/ 15 1011.8
NEW CANAL        0700   76 77   CALM  /  2 1012.2
SHELL BEACH      0700   78 76  120/  7/  9 1011.8

OFFSHORE STATIONS

STATION/POSITION TIME  TEMP    WIND        PRES    WAVE
                       AIR SEA DIR/SP/G            HT/PER
                 (UTC) (F)     (DEG/KT/KT) (MB)    (FT/S)
64 S DAUPHIN ISL 0629   79 82  120/  8/ 10 1012.3    2/ 5

$$




USA.gov is the U.S. government's official web portal to all federal, state and local government web resources and services.